ラーソン彗星

C/2009 F1 ( Larson )

English version
Home page
Updated on April 6, 2013

---------------------------------------------------------------------

・ プロフィール

発見日 2009年3月16日
発見光度 19.0等
発見者 S. M. Larson (Mt. Lemmon)

・ 写真集

・ 軌道要素

Epoch 2009 June 18.0 TT = JDT 2455000.5
T 2009 June 25.89358 TT                                 MPC
q   1.8306148            (2000.0)            P               Q
z  +0.0094932      Peri.  219.58634     -0.74763533     +0.66408782
 +/-0.0001401      Node   357.95006     +0.64097901     +0.72368531
e   0.9826216      Incl.  171.37554     +0.17374496     +0.18779494
From 147 observations 2009 Mar. 16-May 23, mean residual 0".4.

・ 光度変化

        m1 = 15.0 + 5 logΔ + 10.0 log r

---------------------------------------------------------------------

軌道要素はM.P.E.C. 2013-B90に掲載されたものです。
光度グラフはComet for Windowsで作成したものです。

---------------------------------------------------------------------

Copyright(C) Seiichi Yoshida (comet@aerith.net). All rights reserved.